Location: Unspecified
(0.0000°N, 0.0000°E)
Time: 00:18:04
(UTC+00:00)

Explorer 25 - Pass Details

Date: 11 March 2026
Orbit: 523 x 2264 km, 81.3° (Epoch: 14 April)

Event Time Altitude Azimuth Distance (km) Brightness Sun altitude
Rises 20:34:17 0° 220° (SW) 5,746 13.0 -36.0°
Reaches altitude 10° 20:40:32 10° 241° (WSW) 4,529 12.6 -37.6°
Maximum altitude 20:45:32 14° 267° (W) 3,969 12.3 -38.8°
Drops below altitude 10° 20:50:05 10° 294° (WNW) 3,991 12.2 -40.0°
Sets 20:55:01 0° 318° (NW) 4,606 12.4 -41.2°
